Regional Weather Roundup
Issued by NWS

Home | Current Version | Previous Version | Graphics & Text | Print | Product List | Glossary On
Versions: 1 2 3 4 5 6 7 8 9 10 11 12 13 14 15 16 17 18 19 20 21 22 23 24 25 26 27 28 29 30 31 32 33 34 35 36 37 38 39 40 41 42 43 44 45 46 47 48 49 50
000
ASUS45 KPSR 190410
RWRAZ

ARIZONA HOURLY REGIONAL WEATHER ROUNDUP
NATIONAL WEATHER SERVICE PHOENIX AZ
900 PM MST WED APR 18 2018

NOTE: FAIR INDICATES FEW OR NO CLOUDS BELOW 12,000 FEET WITH NO
SIGNIFICANT WEATHER AND/OR OBSTRUCTIONS TO VISIBILITY.

AZZ001>003-036-190500-
NORTHWEST ARIZONA

CITY           SKY/WX    TMP DP  RH WIND       PRES   REMARKS
BULLHEAD CITY  CLEAR     75   3   6 SE14      29.84S
KINGMAN        CLEAR     57   8  14 S9        29.96R
$$

AZZ004>008-015-016-018-190500-
NORTH CENTRAL ARIZONA

CITY           SKY/WX    TMP DP  RH WIND       PRES   REMARKS
GRAND CANYON   CLEAR     34  -2  21 SE5       30.09R WCI  30
WILLIAMS       CLEAR     46  -4  12 S8        30.08S
PRESCOTT       PTCLDY    55   5  13 VRB5      30.05R
FLAGSTAFF      CLEAR     41   4  21 SW6       30.12R
PAYSON         PTCLDY    55   1  11 VRB6      30.09R
PAGE           CLEAR     53  12  19 CALM      30.00S
$$

AZZ009>014-017-190500-
NORTHEAST ARIZONA

CITY           SKY/WX    TMP DP  RH WIND       PRES   REMARKS
WINSLOW        PTCLDY    54   0  11 SW10      30.05R
SAINT JOHNS    CLEAR     54  -1  10 SW10      30.11R
WINDOW ROCK    CLEAR     41  -7  13 VRB3      30.15R
SHOW LOW       CLEAR     50  -8   9 S8        30.16R
$$

AZZ540-542>544-546-548-190500-
GREATER PHOENIX AREA

CITY           SKY/WX    TMP DP  RH WIND       PRES   REMARKS
PHOENIX        CLEAR     77  15   9 NW8       29.91R
BUCKEYE        CLEAR     68  16  13 CALM      29.92R
LUKE AFB       CLEAR     69  21  16 CALM      29.90S
DEER VALLEY    CLEAR     70   9   9 NE5       29.93R
SCOTTSDALE     CLEAR     71  20  14 N3        29.95R
MESA-GATEWAY   CLEAR     70  12  11 CALM      29.94R
CHANDLER       CLEAR     73  14  10 CALM      29.92R
$$

AZZ539-553-190500-
SOUTHWEST MARICOPA COUNTY AND PINAL COUNTY

CITY           SKY/WX    TMP DP  RH WIND       PRES   REMARKS
CASA GRANDE    CLEAR     67  14  13 N7        29.93S
GILA BEND      FAIR      71   4   7 E5        29.89S
$$

AZZ503-504-507>509-190500-
SOUTHEAST ARIZONA

CITY           SKY/WX    TMP DP  RH WIND       PRES   REMARKS
TUCSON         PTCLDY    71   9   9 CALM      30.01R
DAVIS-MONTHAN  CLEAR     67   9  10 NW3       29.99
NOGALES        MOCLDY    62   9  12 E7        30.06R
SIERRA VISTA   MOCLDY    64   5   9 NW3       30.10
DOUGLAS        CLOUDY    68  10  10 W9        30.06R
SAFFORD        CLEAR     65   8  10 NW5       29.97R
$$

AZZ532-190500-
SOUTHWEST ARIZONA

CITY           SKY/WX    TMP DP  RH WIND       PRES   REMARKS
YUMA           CLEAR     69  32  25 S9        29.89R
$$

CAZ041-043-047-048-061-525>527-560>570-190500-
SOUTHERN CALIFORNIA

CITY           SKY/WX    TMP DP  RH WIND       PRES   REMARKS
DOWNTOWN L.A.  CLEAR     57  47  69 W5        29.99R
L.A. AIRPORT   CLEAR     56  49  77 SW13      30.00R
SAN DIEGO      MOCLDY    60  50  69 NW5       30.05S
BURBANK        CLEAR     59  40  49 SE9       29.98R
ONTARIO        PTCLDY    59  41  51 W10       29.99R
RIVERSIDE      CLEAR     59  36  42 W6        29.98R
PALM SPRINGS   CLEAR     73  32  22 NW21G32   29.89R
EL CENTRO NAS  PTCLDY    71  33  24 W20       29.89R
IMPERIAL       CLEAR     70  36  28 SW15      29.87R
BLYTHE         CLEAR     75  19  12 S12       29.87R
NEEDLES        CLEAR     76   2   5 SW8       29.86R
$$

NVZ020-UTZ003-190500-
SOUTHERN NEVADA-UTAH

CITY           SKY/WX    TMP DP  RH WIND       PRES   REMARKS
LAS VEGAS      MOCLDY    71   8   8 S7        29.85R
SALT LAKE CITY MOCLDY    45  32  60 SW6       29.98S
$$

NMZ009-TXZ055-190500-
NEW MEXICO-WEST TEXAS

CITY           SKY/WX    TMP DP  RH WIND       PRES   REMARKS
ALBUQUERQUE    CLEAR     59  11  15 E23G29    30.13R
EL PASO        MOCLDY    69  11  10 E18       30.09R
$$


........................KEY........................
SKY/WX - SKY CONDITION/WEATHER
TMP    - TEMPERATURE IN FAHRENHEIT
DP     - DEW POINT IN FAHRENHEIT
RH     - RELATIVE HUMIDITY IN PERCENT
WIND   - DIRECTION AND SPEED IN MILES PER HOUR (MPH)
VRB    - VARIABLE WIND DIRECTION
PRES   - MEAN SEA LEVEL PRESSURE IN INCHES OF MERCURY
         F - FALLING PRESSURE   R - RISING PRESSURE
         S - STEADY PRESSURE
VSB    - VISIBILITY IN MILES
HX     - HEAT INDEX IN FAHRENHEIT
WCI    - WIND CHILL INDEX IN FAHRENHEIT
TC     - TEMPERATURE IN CELSIUS WHICH IS ALSO KNOWN AS
         TEMPERATURE IN CENTIGRADE
AFB    - AIR FORCE BASE
         LUKE AFB IS LUKE AIR FORCE BASE
         DAVIS-MONTHAN IS DAVIS-MONTHAN AIR FORCE BASE
NAS    - NAVAL AIR STATION
         EL CENTRO NAS IS EL CENTRO NAVAL AIR STATION
N/A    - NOT AVAILABLE




USA.gov is the U.S. government's official web portal to all federal, state and local government web resources and services.